Tracking 20621 objects as of 30-Mar-2020
HD Live streaming from Space Station
objects crossing your sky now

ARIANE 3 DEB (SYLDA)

Track ARIANE 3 DEB (SYLDA) now!
10-day predictions


NORAD ID: 15680
Int'l Code: 1985-035D
Perigee: 316.6 km
Apogee: 7,039.1 km
Inclination: 6.8 °
Period: 167.1 minutes
Semi major axis: 10048 km
RCS: 7.2153 m2 (large)
Launch date: May 8, 1985
Source: France (FR)
Launch site: FRENCH GUIANA (FRGUI)

Note: This is SATELLITE DEBRIS
aabbcc
Your satellite tracking list
Your tracking list is empty




NASA's NSSDC Master Catalog

Two Line Element Set (TLE):
1 15680U 85035D   20089.35217900 +.00020849 +00000-0 +17702-2 0  9999
2 15680 006.7955 174.5558 3344909 311.8664 024.0221 08.61839252611104
Source of the keplerian elements: AFSPC